Hourly Weather Roundup
Issued by NWS Central Illinois

Home | Current Version | Previous Version | Text Only | Print | Product List | Glossary On
Versions: 1 2 3 4 5 6 7 8 9 10 11 12 13 14 15 16 17 18 19 20 21 22 23 24 25 26 27 28 29 30 31 32 33 34 35 36 37 38 39 40 41 42 43 44 45 46 47 48 49 50
000
NZUS43 KILX 120910
HWRILX

Area Weather Roundup
National Weather Service Lincoln IL
300 AM CST TUE DEC 12 2017

NOTE:  "FAIR" indicates few or no clouds below 12,000 feet, with
       no sigificant weather and/or obstructions to visibility.


CITY           SKY/WX    TMP DP  RH WIND       PRES   REMARKS
Bloomington    CLOUDY    30  23  75 NW21G31   30.02R WCI  17
Champaign      CLOUDY    32  20  61 NW21G30   29.99S WCI  20
Danville       CLOUDY    31  19  61 NW14      29.93S WCI  21
Decatur        CLOUDY    33  23  66 NW18G24   30.03R WCI  22
Effingham      CLOUDY    36  30  80 NW18G24   30.04R WCI  25
Flora          CLOUDY    37  32  85 NW15G22   30.03R WCI  27
Galesburg      CLEAR     25  16  69 NW17G28   30.13R WCI  11
Jacksonville   CLOUDY    30  19  62 NW20G30   30.11R WCI  18
Lacon          MOCLDY    26  18  70 N13G18    30.08R WCI  15
Lawrenceville  CLOUDY    35  31  85 NW18      29.99R FOG     WCI  24
Litchfield     CLOUDY    34  25  69 NW17G23   30.07R WCI  23
$$


CITY           SKY/WX    TMP DP  RH WIND       PRES   REMARKS
Lincoln        CLOUDY    32  22  66 NW14G24   30.05R WCI  22
Macomb         CLEAR     26  17  69 NW22G30   30.16R WCI  12
Mattoon        CLOUDY    33  22  63 NW31G40   30.00R WCI  19
Mt Carmel AP   NOT AVBL
Olney-Noble AP CLOUDY    35  33  91 NW16G26   30.02R WCI  25
Paris AP       CLOUDY    32  25  73 NW18G24   29.98R WCI  21
Peoria         PTCLDY    27  16  63 N14G25    30.08R WCI  16
Pontiac        CLOUDY    27  14  59 NW24G33   30.03R WCI  12
Rantoul        CLOUDY    32  21  64 NW18G25   29.98R WCI  21
Robinson       CLOUDY    33  29  85 NW17G24   30.00R WCI  23
Springfield    MOCLDY    33  19  56 NW25G36   30.08R WCI  20
Taylorville    CLOUDY    33  22  64 NW16G23   30.06S WCI  23
$$

...REGIONAL REPORTS...


CITY           SKY/WX    TMP DP  RH WIND       PRES   REMARKS
Chicago O`Hare FLURRIES  23  13  65 NW18G28   29.99R WCI   9
Kankakee       CLOUDY    29  18  63 NW16G28   29.99R WCI  17
Moline         CLEAR     24  14  65 NW20G29   30.12R WCI  10
Mount Sterling CLEAR     27  17  66 NW24G31   30.14R WCI  12
Mount Vernon   CLOUDY    38  29  70 N9G18     30.05R WCI  31
Pittsfield     MOCLDY    30  21  69 NW17      30.14R WCI  18
Quincy         CLOUDY    30  20  66 NW16G28   30.16R WCI  19
Rockford       PTCLDY    20  10  65 NW13      30.07R WCI   7
$$


CITY           SKY/WX    TMP DP  RH WIND       PRES   REMARKS
Burlington     CLEAR     25  17  72 NW17G24   30.16R WCI  12
Cedar Rapids   CLEAR     20  12  71 NW17G26     N/A  WCI   5
Des Moines     CLEAR     17  10  74 NW10      30.28R WCI   5
Kirksville     PTCLDY    23  19  85 NW10      30.23R WCI  12
Ottumwa        CLEAR     21  15  78 NW15      30.22R WCI   8
St Louis       CLOUDY    38  25  59 NW17G28   30.10R WCI  28
$$


CITY           SKY/WX    TMP DP  RH WIND       PRES   REMARKS
Terre Haute    CLOUDY    33  27  78 NW17G28   29.96R WCI  22
Evansville     CLOUDY    38  35  89 NW7G16    29.99R WCI  33
Indianapolis   CLOUDY    31  29  92 NW16G25   29.90R FOG     WCI  20
Lafayette      CLOUDY    31  24  75 NW13      29.92R WCI  21
Madison        MOCLDY    17   7  64 N14G28    30.06R WCI   3
Milwaukee      PTCLDY    22   8  55 NW14G26   29.99R WCI   9
$$





USA.gov is the U.S. government's official web portal to all federal, state and local government web resources and services.